Powrót do katalogu

FENGYUN 1C DEB

LostSSO
NORAD 31534·DEBRIS·🇨🇳 China

Wystrzelony May 10, 1999 z Taiyuan Satellite Launch Center

Loading…

Następne Przeloty (najbliższe 24 godziny)

TLE

NieaktualneSource: Space-Track

Epoka: Nov 9, 2022, 06:25 UTC

1 31534U 99025BXZ 22313.26795028  .00009026  00000-0  32494-2 0  9992
2 31534  99.0087 129.7420 0018705 103.1746 257.1526 14.33848529807852

Śledź FENGYUN 1C DEB w czasie rzeczywistym z AllMySat

Download on the App Store